www.pogodaiklimat.ru

Погода и климат >> Архив погоды >> Иран >> Бендер-Дейер


ПОГОДА в Бендер-Дейере

  • Прогноз погоды в Бендер-Дейере
  • Монитор погоды в Бендер-Дейере

АРХИВ ПОГОДЫ в Бендер-Дейере

Время (UTC), дата Ветер
(напр.,м/с)
 
Видим.   Явления Облачность Т
(С)
Тd
(С)
f
(%)
Тe
(С)
Тes
(С)
Комфортность P
(гПа)
Po
(гПа)
Тmin
(С)
Tmax
(С)
R
(мм)
R24
(мм)
S
(см)
21 8.02 С 1 10 км ясно +16.9 +8.8 59 +18 +18 1017.7 1017.2
00 9.02 С 3 10 км 3/0
[Ci sp]
+17.1 +5.8 47 +17 +17 1019.6 1019.1
03 9.02 С 2 10 км 4/0
[Ci fib]
+16.4 +7.6 56 +17 +17 1018.5 1018.0 +15.2
06 9.02 штиль 0 10 км 5/0
[Ac trans Cc]
+20.8 0.0 25 +21 +29 комфорт 1018.1 1017.6
09 9.02 ЮВ 6 8000 м мгла 5/1 1050 м
[Sc Ac trans]
+22.6 +15.2 63 +26 +30 жарко 1018.0 1017.5
12 9.02 Ю 4 10 км 5/0
[Ac trans Ci fib]
+22.6 +30.1 100 +31 +33 очень
душно
1017.9 1017.4
15 9.02 Ю 7 8000 м пыльный позёмок 8/3 900 м
[Cu med, cong Ac As]
+21.2 +14.7 66 +24 +24 комфорт 1017.3 1016.8 +23.2
18 9.02 ЮВ 7 8000 м пыльный позёмок 8/1 1050 м
[Sc Ac As]
+21.2 +15.6 70 +24 +24 комфорт 1017.8 1017.3
21 9.02 ЮВ 4 10 км 9/4 1050 м
[Sc Ac As]
+21.2 +15.9 72 +25 +25 комфорт 1016.6 1016.1
00 10.02 СВ 3 8000 м {дождь} 10/4 900 м
[Cb calv As op]
+18.8 +14.4 76 +20 +20 1016.8 1016.3 0.1
03 10.02 В 3 10 км {дождь} 9/4 900 м
[Cb calv Ac As]
+19.8 +12.7 64 +22 +22 комфорт 1017.8 1017.3 +18.6
06 10.02 С 2 6000 м дождь 10/6 900 м
[Cb calv As op]
+16.6 +30.1 100 +17 +17 1019.8 1019.3 4
09 10.02 С 2 5000 м слаб. дождь 10/6 900 м
[Cb calv As op]
+15.7 +12.5 81 +16 +17 1020.0 1019.5
12 10.02 С 3 5000 м слаб. дождь 10/6 900 м
[Cb calv As op]
+15.4 +30.1 100 +15 +15 1017.5 1017.0 10
15 10.02 С 3 5000 м слаб. дождь 10/6 900 м
[Cb calv As op]
+15.4 +14.2 93 +15 +15 1017.8 1017.3 +18.8
18 10.02 СЗ 2 4000 м слаб. дождь 10/6 900 м
[Cb calv As op]
+15.3 +14.5 95 +15 +15 1019.0 1018.5 13
21 10.02 СВ 3 5000 м слаб. дождь 10/4 1050 м
[Sc As op]
+15.9 +14.3 90 +15 +15 1016.5 1016.0
00 11.02 С 3 5000 м слаб. дождь 10/6 900 м
[Cb calv As op]
+16.5 +13.6 83 +16 +16 1014.5 1014.0 10
03 11.02 В 4 5000 м слаб. дождь 10/4 1050 м
[Sc As op]
+19.8 +13.1 65 +22 +22 комфорт 1012.9 1012.5 +15.0
06 11.02 З 2 8000 м мгла {гроза} 10/4 1050 м
[Sc Ac As]
+17.9 +13.0 73 +18 +20 1014.7 1014.2 0.6
09 11.02 В 5 8000 м в посл. час дождь 10/4 1050 м
[Sc Ac As]
+19.8 +15.8 78 +22 +23 комфорт 1015.3 1014.8
12 11.02 ЮВ 12 8000 м в посл. час дождь 10/4 1050 м
[Sc Ac As]
+21.2 +16.6 75 +25 +25 комфорт 1010.8 1010.4 2
15 11.02 ЮВ 11 8000 м мгла 10/6 900 м
[Cb calv Ac As]
+21.4 +17.5 78 +25 +25 комфорт 1010.5 1010.1 +21.6
18 11.02 СЗ 7 5000 м гроза, ливневой дождь 10/6 900 м
[Cb cap As op]
+16.2 +13.4 83 +15 +15 1011.7 1011.3 15
21 11.02 З 2 8000 м {гроза, дождь} 9/4 1050 м
[Sc Ac As]
+15.9 +12.7 81 +16 +16 1012.5 1012.1
00 12.02 СЗ 7 8000 м мгла {дождь} 8/0
[Ac As]
+15.4 +10.5 73 +14 +14 1012.5 1012.1 2
03 12.02 СЗ 5 10 км ясно +14.0 +10.9 82 +12 +12 1013.5 1013.1 +14.0
06 12.02 СЗ 6 7000 м мгла ясно +16.2 +30.1 100 +15 +18 1016.0 1015.5
09 12.02 СЗ 7 7000 м пыльный позёмок ясно +18.6 +9.6 56 +18 +22 1015.9 1015.4
12 12.02 СЗ 6 10 км 3/3 750 м
[Cu hum]
+19.4 +30.1 100 +21 +23 комфорт 1015.5 1015.0
15 12.02 СЗ 5 10 км 1/0
[Ac trans]
+16.8 +7.5 54 +16 +16 1017.5 1017.0 +19.8
18 12.02 СЗ 5 10 км ясно +14.6 +10.1 74 +13 +13 1019.2 1018.8
21 12.02 СЗ 6 10 км ясно +14.3 +10.3 77 +12 +12 1019.8 1019.4
00 13.02 СЗ 5 10 км ясно +13.3 +9.7 79 +11 +11 1019.4 1019.0
06 13.02 СЗ 5 8000 м мгла ясно +16.2 +30.1 100 +15 +19 1022.3 1021.8
09 13.02 СЗ 3 10 км 1/0
[Cs]
+20.4 +10.5 53 +22 +33 комфорт 1021.6 1021.2
12 13.02 З 2 15 км 1/0
[Ci fib]
+22.4 +30.1 100 +30 +34 очень
душно
1019.5 1019.0
15 13.02 СЗ 3 10 км ясно +19.0 +10.9 59 +20 +20 1019.8 1019.4 +22.9
18 13.02 СЗ 3 10 км ясно +16.6 +11.0 69 +16 +16 1021.0 1020.6
21 13.02 СЗ 2 10 км ясно +14.6 +11.2 80 +14 +14 1020.5 1020.1
00 14.02 С 3 10 км ясно +13.0 +9.9 81 +12 +12 1019.3 1018.9
03 14.02 С 2 10 км ясно +12.8 +8.8 77 +12 +12 1019.4 1019.0 +12.5
06 14.02 С 2 10 км ясно +16.6 +30.1 100 +17 +24 1021.3 1020.9
09 14.02 Ю 2 10 км 8/0
[Cs]
+21.8 +13.1 58 +24 +35 комфорт 1020.7 1020.3
12 14.02 Ю 3 10 км 6/0
[Cs]
+22.0 +30.1 100 +29 +32 очень
душно
1017.9 1017.4
15 14.02 ЮЗ 2 15 км 4/0
[Ci sp]
+20.2 +13.6 66 +23 +23 комфорт 1018.3 1017.8 +22.2
18 14.02 С 2 10 км 4/0
[Ci fib]
+17.6 +13.7 78 +18 +18 1019.0 1018.5
21 14.02 С 2 10 км 9/0
[Ac As Cs]
+16.0 +12.6 80 +16 +16 1018.0 1017.5
00 15.02 З 2 10 км 10/3 1050 м
[Sc As op]
+17.2 +12.1 72 +18 +18 1018.6 1018.1
03 15.02 ЮВ 4 10 км {дождь} 10/5 900 м
[Cb calv As op]
+19.3 +13.6 70 +21 +21 комфорт 1015.9 1015.4 +15.7
06 15.02 С 2 7000 м в посл. час дождь ясно +19.2 +30.1 100 +22 +29 комфорт 1017.6 1017.1 0.2
09 15.02 СВ 2 10 км 10/4 1050 м
[Sc Ac As]
+21.6 +15.7 69 +25 +27 комфорт 1017.1 1016.6
12 15.02 ЮВ 8 10 км 10/4 1050 м
[Sc Ac As]
+21.7 +15.3 67 +25 +25 комфорт 1015.2 1014.7 0.2
15 15.02 ЮВ 5 8000 м гроза, ливневой дождь 9/6 900 м
[Cb cap Ac As]
+21.3 +15.3 69 +24 +24 комфорт 1016.7 1016.2 +22.1
18 15.02 СЗ 3 8000 м гроза, ливневой дождь 10/6 900 м
[Cb cap As op]
+17.6 +14.5 82 +18 +18 1017.5 1017.0 3

 

Местоположение метеостанции Бендер-Дейер (Иран): широта 27.83 долгота 51.93 высота над уровнем моря 4 м.

В архиве по умолчанию представлена погода в Бендер-Дейере за последнюю неделю. Архивные данные за месяц целиком и за предыдущие месяцы, начиная с января 2011 года, Вы можете получить, выбрав интересующий диапазон дат из раскрывающегося списка и нажав кнопку "Ввод!".


*Определитесь, кто Вы:
робот инопланетянин человек

Внимание! Время в таблицах - всемирное. Для получения местного времени необходимо прибавить поправку, которая равна 3.5 ч.

Смотрите также архив погоды в соседних городах и на ближайших метеорологических станциях:

Погода в Бушире (Иран) (163 км)
Погода в Бушир аэропорту (Иран) (167 км)
Погода в Ширазе (Иран) (198 км)
Погода в Фесе (Иран) (213 км)
Погода в Бахрейне (Бахрейн) (215 км)
Погода на Харке (Иран) (224 км)
Погода в Дахране (Саудовская Аравия) (246 км)
Погода на Острове Киш (Иран) (251 км)
Погода в Аэропорту Король Фахд (Саудовская Аравия) (259 км)
Погода в Аэропорту Хамад (Катар) (287 км)

Пояснения к столбцам:

Ветер - указаны скорость ветра в м/с - средняя за 10 мин, порывы в срок и между сроками (в фигурных скобках) и направление, откуда дует ветер: С - северный, СВ - северо-восточный, В - восточный, ЮВ - юго-восточный, Ю - южный, ЮЗ - юго-западный, З - западный, СЗ - северо-западный.
Видимость - горизонтальная дальность видимости в метрах или километрах. При видимости от 1 до 10 км при отсутствии осадков обычно наблюдается дымка, при ухудшении видимости до 1 км и менее - туман. В сухую погоду видимость может ухудшаться дымом, пылью или мглою.
Явления - указаны атмосферные явления, наблюдавшиеся в срок или в последний час перед сроком; фигурными скобками обозначены явления, наблюдавшиеся между сроками (за 1-3 часа до срока); квадратными скобками обозначены град или гололедные отложения с указанием их диаметра в мм.
Облачность - указаны через наклонную черту общая и нижняя облачность в баллах и высота нижней границы облаков в метрах; квадратными скобками обозначены формы облаков: Ci - перистые, Cs - перисто-слоистые, Cc - перисто-кучевые, Ac - высококучевые, As - высокослоистые, Sc - слоисто-кучевые, Ns - слоисто-дождевые, Cu - кучевые, Cb - кучево-дождевые. Подробнее классификацию облаков см. в Атласе облаков (PDF).
T - Температура воздуха - температура, измеренная на высоте 2 м над землей.
Td - Температура точки росы - температура, при понижении до которой содержащийся в воздухе водяной пар достигнет насыщения.
f - Относительная влажность воздуха - влажноcть воздуха, измеренная на высоте 2 м над землей.
Te - Эффективная температура - температура, которую ощущает одетый по сезону человек в тени. Характеристика душности погоды. При расчете учитывается влияние влажности воздуха и скорости ветра на теплоощущения человека.
Tes - Эффективная температура на солнце - температура, которую ощущает человек, с поправкой на солнечный нагрев. Характеристика знойности погоды. Зависит от высоты солнца над горизонтом, облачности и скорости ветра. Ночью, в пасмурную погоду, а также при ветре 12 м/с и более поправка равна нулю.
P - Атмосферное давление - приведенное к уровню моря атмосферное давление.
Po - Атмосферное давление - измеренное на уровне метеостанции атмосферное давление.
Tmin - Минимальная температура - минимум температуры воздуха на высоте 2 м над землей.
Tmax - Максимальная температура - максимум температуры воздуха на высоте 2 м над землей.
R - Количество осадков - Количество выпавших осадков за период времени, мм. При наведении курсора мыши на число - период времени, за который выпало указанное количество осадков.
R24 - Количество осадков - Количество выпавших осадков за 24 часа, мм.
S - Снежный покров - Высота снежного покрова, см. При наведении курсора мыши на число - состояние снежного покрова и степень покрытия местности в баллах.